DW0937 Weather Reports


Display with metric or nautical units.
time (UTC)temp
F
wind
direction
speed
MPH
gust
MPH
rain 1hr
in
rain 24hr
in
rain mn
in
humidity
%
barometer
mb
20260831222524 89 225 1.0 3.0 0.00 0.00 0.00 41 1010.4
20260831222025 90 224 0.0 3.0 0.00 0.00 0.00 40 1010.3
20260831221744 90 350 0.0 2.0 0.00 0.00 0.00 41 1010.2
20260831221017 90 351 0.0 2.0 0.00 0.00 0.00 42 1010.2
20260831220516 90 355 1.0 4.0 0.00 0.00 0.00 40 1010.2
20260831220017 91 355 2.0 4.0 0.00 0.00 0.00 41 1010.2
20260831215516 91 333 2.0 4.0 0.00 0.00 0.00 39 1010.0
20260831215014 91 331 1.0 3.0 0.00 0.00 0.00 38 1010.0
20260831214515 91 243 1.0 4.0 0.00 0.00 0.00 39 1010.0
20260831214016 92 246 1.0 4.0 0.00 0.00 0.00 39 1009.9
20260831213516 92 230 1.0 4.0 0.00 0.00 0.00 38 1009.9
20260831213012 92 355 1.0 6.0 0.00 0.00 0.00 36 1009.9
20260831212512 92 25 1.0 6.0 0.00 0.00 0.00 37 1009.9
20260831212012 91 263 2.0 5.0 0.00 0.00 0.00 38 1009.9
20260831211508 92 254 1.0 3.0 0.00 0.00 0.00 37 1009.8
20260831211008 92 333 2.0 4.0 0.00 0.00 0.00 37 1009.8
20260831210509 92 13 1.0 4.0 0.00 0.00 0.00 39 1009.7
20260831210008 92 312 1.0 6.0 0.00 0.00 0.00 39 1009.8
20260831205728 92 238 2.0 6.0 0.00 0.00 0.00 40 1009.8
20260831205010 91 282 2.0 6.0 0.00 0.00 0.00 42 1009.8
20260831204508 91 344 2.0 6.0 0.00 0.00 0.00 40 1009.8
20260831204007 91 292 2.0 6.0 0.00 0.00 0.00 41 1009.9
20260831203507 91 339 1.0 3.0 0.00 0.00 0.00 44 1009.8
20260831203010 91 314 1.0 5.0 0.00 0.00 0.00 45 1009.8
20260831202727 90 344 2.0 5.0 0.00 0.00 0.00 41 1009.9
20260831202005 91 343 2.0 5.0 0.00 0.00 0.00 43 1010.0
20260831201503 91 309 2.0 4.0 0.00 0.00 0.00 44 1009.9
20260831201004 91 312 1.0 4.0 0.00 0.00 0.00 45 1009.9
20260831200504 91 326 2.0 6.0 0.00 0.00 0.00 42 1009.9
20260831200006 91 338 2.0 6.0 0.00 0.00 0.00 44 1009.8
20260831195506 91 5 2.0 5.0 0.00 0.00 0.00 44 1009.8
20260831195004 90 307 3.0 6.0 0.00 0.00 0.00 46 1009.8
20260831194505 90 307 3.0 8.0 0.00 0.00 0.00 45 1009.7
20260831194226 91 351 3.0 8.0 0.00 0.00 0.00 47 1009.8
20260831193504 90 314 2.0 6.0 0.00 0.00 0.00 45 1009.8
20260831193005 90 327 2.0 5.0 0.00 0.00 0.00 48 1009.7
20260831192505 90 318 2.0 5.0 0.00 0.00 0.00 45 1009.8
20260831192003 90 206 2.0 9.0 0.00 0.00 0.00 46 1009.9
20260831191718 90 13 2.0 9.0 0.00 0.00 0.00 45 1009.8
20260831191222 90 355 2.0 6.0 0.00 0.00 0.00 46 1009.8
20260831190500 90 355 2.0 6.0 0.00 0.00 0.00 45 1009.7
20260831185959 89 0 2.0 6.0 0.00 0.00 0.00 49 1009.6
20260831185500 89 330 3.0 6.0 0.00 0.00 0.00 48 1009.7
20260831185003 89 321 3.0 8.0 0.00 0.00 0.00 47 1009.6
20260831184459 89 355 3.0 8.0 0.00 0.00 0.00 49 1009.5
20260831183959 89 5 3.0 7.0 0.00 0.00 0.00 49 1009.7
20260831183500 89 329 2.0 7.0 0.00 0.00 0.00 55 1009.6
20260831183000 88 336 2.0 4.0 0.00 0.00 0.00 59 1009.7
20260831182724 88 5 2.0 6.0 0.00 0.00 0.00 58 1009.7
20260831182001 89 329 3.0 6.0 0.00 0.00 0.00 57 1009.8
20260831181500 88 338 3.0 6.0 0.00 0.00 0.00 57 1009.7
20260831181001 88 342 2.0 5.0 0.00 0.00 0.00 58 1009.8
20260831180457 87 252 2.0 5.0 0.00 0.00 0.00 63 1009.8
20260831175955 87 306 1.0 4.0 0.00 0.00 0.00 63 1009.8
20260831175456 87 306 1.0 4.0 0.00 0.00 0.00 64 1009.7
20260831174959 87 340 2.0 4.0 0.00 0.00 0.00 63 1009.8
20260831174722 86 302 2.0 5.0 0.00 0.00 0.00 66 1009.8
20260831173954 86 317 1.0 5.0 0.00 0.00 0.00 67 1009.9
20260831173727 86 355 1.0 4.0 0.00 0.00 0.00 70 1009.9
20260831172953 85 336 1.0 5.0 0.00 0.00 0.00 70 1010.0
20260831172454 85 348 2.0 5.0 0.00 0.00 0.00 69 1010.2
20260831171954 85 355 2.0 5.0 0.00 0.00 0.00 70 1010.2
20260831171455 85 290 2.0 4.0 0.00 0.00 0.00 71 1010.2
20260831170951 85 342 1.0 3.0 0.00 0.00 0.00 71 1010.2
20260831170447 85 314 2.0 7.0 0.00 0.00 0.00 70 1010.0
20260831165949 85 315 2.0 7.0 0.00 0.00 0.00 70 1010.0
20260831165448 85 0 2.0 6.0 0.00 0.00 0.00 70 1010.2
20260831164948 86 38 2.0 5.0 0.00 0.00 0.00 71 1010.0
20260831164448 85 338 1.0 4.0 0.00 0.00 0.00 72 1009.9
20260831163946 85 336 1.0 5.0 0.00 0.00 0.00 73 1009.9
20260831163446 85 302 1.0 5.0 0.00 0.00 0.00 76 1009.8
20260831162944 84 336 1.0 3.0 0.00 0.00 0.00 77 1009.7
20260831162442 84 343 1.0 3.0 0.00 0.00 0.00 75 1009.7
20260831162200 83 5 2.0 5.0 0.00 0.00 0.00 76 1009.7
20260831161441 83 5 1.0 5.0 0.00 0.00 0.00 76 1009.7
20260831160944 83 325 1.0 4.0 0.00 0.00 0.00 77 1009.8
20260831160437 83 323 1.0 4.0 0.00 0.00 0.00 79 1009.8
20260831155935 83 310 1.0 5.0 0.00 0.00 0.00 77 1009.8
20260831155435 82 348 1.0 5.0 0.00 0.00 0.00 78 1009.8
20260831154936 82 350 1.0 5.0 0.00 0.00 0.00 77 1009.8
20260831154435 83 355 2.0 5.0 0.00 0.00 0.00 77 1009.8
20260831153937 83 13 2.0 5.0 0.00 0.00 0.00 77 1009.8
20260831153435 83 0 1.0 5.0 0.00 0.00 0.00 80 1009.8
20260831152935 83 348 1.0 3.0 0.00 0.00 0.00 81 1009.6
20260831152435 82 285 1.0 2.0 0.00 0.00 0.00 80 1009.5
20260831151933 82 235 1.0 2.0 0.00 0.00 0.00 82 1009.5
20260831151433 81 235 1.0 2.0 0.00 0.00 0.00 82 1009.3
20260831150935 81 230 1.0 2.0 0.00 0.00 0.00 82 1009.2
20260831150428 81 355 1.0 7.0 0.00 0.00 0.00 83 1009.1
20260831145917 80 5 1.0 7.0 0.00 0.00 0.00 83 1009.0
20260831145859 80 9 1.0 4.0 0.00 0.00 0.00 83 1009.0
20260831144906 80 10 1.0 3.0 0.00 0.00 0.00 84 1008.9
20260831144402 79 14 1.0 5.0 0.00 0.00 0.00 85 1008.9
20260831143900 79 250 1.0 5.0 0.00 0.00 0.00 85 1008.8
20260831143401 79 250 0.0 4.0 0.00 0.00 0.00 85 1008.8
20260831142859 79 248 1.0 3.0 0.00 0.00 0.00 86 1008.9
20260831142358 78 244 1.0 3.0 0.00 0.00 0.00 87 1008.7
20260831141859 78 236 1.0 5.0 0.00 0.00 0.00 87 1008.7
20260831141358 77 234 1.0 5.0 0.00 0.00 0.00 89 1008.7
20260831141343 76 234 1.0 3.0 0.00 0.00 0.00 91 1008.5
20260831140855 77 236 0.0 2.0 0.00 0.00 0.00 89 1008.6
20260831135856 76 211 2.0 4.0 0.00 0.00 0.00 92 1008.5
20260831135353 75 273 2.0 5.0 0.00 0.00 0.00 94 1008.4
20260831134851 74 258 2.0 5.0 0.00 0.00 0.00 94 1008.4
20260831134611 74 208 2.0 6.0 0.00 0.00 0.00 96 1008.4
20260831134109 73 238 3.0 6.0 0.00 0.00 0.00 96 1008.3
20260831133347 73 238 2.0 5.0 0.00 0.00 0.00 96 1008.3
20260831133110 73 244 1.0 5.0 0.00 0.00 0.00 96 1008.3
20260831132341 72 250 0.0 2.0 0.00 0.00 0.00 96 1008.2
20260831131841 72 246 0.0 3.0 0.00 0.00 0.00 96 1008.1
20260831131339 72 246 1.0 3.0 0.00 0.00 0.00 95 1008.0
20260831130840 72 241 1.0 3.0 0.00 0.00 0.00 95 1008.0
20260831130340 72 246 2.0 5.0 0.00 0.00 0.00 95 1008.1
20260831130059 72 235 2.0 6.0 0.00 0.00 0.00 96 1008.0
20260831125354 72 216 1.0 6.0 0.00 0.00 0.00 96 1008.0
20260831124839 71 225 0.0 2.0 0.00 0.00 0.00 96 1008.0
20260831124339 71 225 0.0 0.0 0.00 0.00 0.00 96 1007.8
20260831123839 71 160 0.0 0.0 0.00 0.00 0.00 95 1007.7
20260831123339 70 159 0.0 0.0 0.00 0.00 0.00 95 1007.7
20260831122839 70 156 0.0 0.0 0.00 0.00 0.00 95 1007.7
20260831122556 70 157 0.0 0.0 0.00 0.00 0.00 95 1007.6
20260831121836 70 156 0.0 0.0 0.00 0.00 0.00 95 1007.6
20260831121336 70 156 0.0 0.0 0.00 0.00 0.00 95 1007.6
20260831120834 70 156 0.0 0.0 0.00 0.00 0.00 95 1007.6
20260831120328 70 156 0.0 0.0 0.00 0.00 0.00 95 1007.6
20260831115823 70 156 0.0 0.0 0.00 0.00 0.00 95 1007.5
20260831115323 70 156 0.0 0.0 0.00 0.00 0.00 95 1007.4
20260831114820 70 156 0.0 0.0 0.00 0.00 0.00 95 1007.3
20260831114318 70 156 0.0 0.0 0.00 0.00 0.00 95 1007.3
20260831113818 70 156 0.0 0.0 0.00 0.00 0.00 94 1007.2
20260831113317 70 156 0.0 0.0 0.00 0.00 0.00 94 1007.3
20260831112817 70 156 0.0 0.0 0.00 0.00 0.00 94 1007.0
20260831112319 70 156 0.0 0.0 0.00 0.00 0.00 94 1007.0
20260831111815 71 156 0.0 0.0 0.00 0.00 0.00 94 1007.0
20260831111314 71 156 0.0 0.0 0.00 0.00 0.00 94 1007.0
20260831111032 71 156 0.0 0.0 0.00 0.00 0.00 94 1006.9
20260831110313 71 156 0.0 0.0 0.00 0.00 0.00 94 1006.7
20260831105811 71 156 0.0 2.0 0.00 0.00 0.00 94 1006.6
20260831105308 71 156 0.0 2.0 0.00 0.00 0.00 94 1006.7
20260831104808 71 156 0.0 2.0 0.00 0.00 0.00 94 1006.7
20260831104308 71 157 0.0 0.0 0.00 0.00 0.00 94 1006.7
20260831103758 71 157 0.0 0.0 0.00 0.00 0.00 94 1006.8
20260831103257 71 157 0.0 0.0 0.00 0.00 0.00 94 1006.9
20260831102759 71 157 1.0 3.0 0.00 0.00 0.00 94 1006.9
20260831102255 71 157 1.0 3.0 0.00 0.00 0.00 93 1006.6
20260831101755 71 157 1.0 3.0 0.00 0.00 0.00 93 1006.7
20260831101253 71 157 1.0 3.0 0.00 0.00 0.00 93 1006.7
20260831100753 71 156 1.0 3.0 0.00 0.00 0.00 93 1006.7
20260831100254 71 156 1.0 2.0 0.00 0.00 0.00 93 1006.8
20260831095751 71 157 1.0 2.0 0.00 0.00 0.00 93 1006.7
20260831095249 71 157 1.0 3.0 0.00 0.00 0.00 93 1006.7
20260831094751 72 161 2.0 4.0 0.00 0.00 0.00 93 1006.6
20260831094248 72 161 2.0 4.0 0.00 0.00 0.00 93 1006.7
20260831093747 72 140 0.0 3.0 0.00 0.00 0.00 93 1006.6
20260831093245 72 143 1.0 3.0 0.00 0.00 0.00 92 1006.7
20260831092743 72 138 2.0 4.0 0.00 0.00 0.00 92 1006.6
20260831092243 72 124 2.0 4.0 0.00 0.00 0.00 92 1006.5
20260831092004 72 150 1.0 4.0 0.00 0.00 0.00 92 1006.5
20260831091235 72 144 2.0 4.0 0.00 0.00 0.00 92 1006.7
20260831090734 72 138 2.0 4.0 0.00 0.00 0.00 92 1006.7
20260831090456 72 144 2.0 4.0 0.00 0.00 0.00 92 1006.6
20260831085734 72 140 1.0 5.0 0.00 0.00 0.00 92 1006.6
20260831085233 72 128 1.0 5.0 0.00 0.00 0.00 92 1006.6
20260831084733 72 141 1.0 5.0 0.00 0.00 0.00 92 1006.6
20260831084231 72 133 1.0 3.0 0.00 0.00 0.00 91 1006.7
20260831083731 73 134 1.0 6.0 0.00 0.00 0.00 91 1006.5
20260831083231 73 140 1.0 6.0 0.00 0.00 0.00 91 1006.4
20260831082731 73 115 1.0 4.0 0.00 0.00 0.00 91 1006.4
20260831082228 73 140 2.0 4.0 0.00 0.00 0.00 91 1006.4
20260831081729 73 148 2.0 6.0 0.00 0.00 0.00 91 1006.4
20260831081446 73 138 3.0 6.0 0.00 0.00 0.00 91 1006.2
20260831080719 73 161 2.0 6.0 0.00 0.00 0.00 91 1006.4
20260831080221 73 132 2.0 6.0 0.00 0.00 0.00 91 1006.5
20260831075717 73 135 2.0 5.0 0.00 0.00 0.00 91 1006.5
20260831075217 73 134 2.0 4.0 0.00 0.00 0.00 90 1006.5
20260831074715 73 154 1.0 4.0 0.00 0.00 0.00 90 1006.5
20260831074416 73 147 2.0 7.0 0.00 0.00 0.00 90 1006.5
20260831074303 73 139 1.0 7.0 0.00 0.00 0.00 90 1006.5
20260831073214 73 128 2.0 4.0 0.00 0.00 0.00 90 1006.5
20260831072713 73 140 2.0 5.0 0.00 0.00 0.00 90 1006.5
20260831072212 73 124 3.0 7.0 0.00 0.00 0.00 90 1006.6
20260831071713 73 150 3.0 8.0 0.00 0.00 0.00 90 1006.6
20260831071213 73 179 3.0 8.0 0.00 0.00 0.00 89 1006.6
20260831070713 73 173 2.0 7.0 0.00 0.00 0.00 89 1006.6
20260831070215 73 140 3.0 7.0 0.00 0.00 0.00 89 1006.8
20260831065713 73 152 3.0 6.0 0.00 0.00 0.00 89 1006.7
20260831065213 73 143 2.0 6.0 0.00 0.00 0.00 89 1006.8
20260831064946 73 135 2.0 7.0 0.00 0.00 0.00 89 1006.9
20260831064428 73 134 1.0 6.0 0.00 0.00 0.00 89 1007.1
20260831064308 73 146 2.0 7.0 0.00 0.00 0.00 89 1007.0
20260831063213 73 138 2.0 7.0 0.00 0.00 0.00 89 1007.1
20260831062714 73 150 1.0 7.0 0.00 0.00 0.00 89 1007.1
20260831062439 73 144 2.0 7.0 0.00 0.00 0.00 88 1007.3
20260831061713 73 157 2.0 7.0 0.00 0.00 0.00 88 1007.3
20260831061212 73 106 2.0 5.0 0.00 0.00 0.00 88 1007.3
20260831060714 73 128 2.0 5.0 0.00 0.00 0.00 88 1007.4
20260831060432 73 147 2.0 4.0 0.00 0.00 0.00 88 1007.4
20260831055710 74 138 2.0 6.0 0.00 0.00 0.00 88 1007.3
20260831055659 74 138 3.0 6.0 0.00 0.00 0.00 88 1007.2
20260831054937 74 140 2.0 5.0 0.00 0.00 0.00 87 1007.4
20260831054208 74 142 2.0 5.0 0.00 0.00 0.00 87 1007.5
20260831053710 74 142 3.0 6.0 0.00 0.00 0.00 87 1007.6
20260831053210 74 135 3.0 6.0 0.00 0.00 0.00 87 1007.6
20260831052709 74 142 2.0 6.0 0.00 0.00 0.00 86 1007.7
20260831052210 74 138 2.0 6.0 0.00 0.00 0.00 86 1007.8
20260831051704 74 144 2.0 6.0 0.00 0.00 0.00 86 1007.8
20260831051217 74 148 2.0 7.0 0.00 0.00 0.00 86 1007.9
20260831050705 74 153 2.0 7.0 0.00 0.00 0.00 86 1007.9
20260831050219 74 145 2.0 5.0 0.00 0.00 0.00 86 1008.1
20260831045705 74 138 2.0 7.0 0.00 0.00 0.00 85 1008.0
20260831045648 74 175 2.0 7.0 0.00 0.00 0.00 85 1008.0
20260831045144 74 155 1.0 4.0 0.00 0.00 0.00 85 1008.0
20260831044206 75 150 1.0 4.0 0.00 0.00 0.00 85 1008.1
20260831043702 75 157 1.0 5.0 0.00 0.00 0.00 85 1008.1
20260831043202 75 139 1.0 8.0 0.00 0.00 0.00 85 1008.1
20260831042702 75 138 2.0 10.0 0.00 0.00 0.00 84 1008.1
20260831042422 75 123 1.0 10.0 0.00 0.00 0.00 84 1008.1
20260831041702 75 136 1.0 8.0 0.00 0.00 0.00 84 1008.2
20260831041203 75 222 2.0 8.0 0.00 0.00 0.00 84 1008.2
20260831040701 75 152 2.0 7.0 0.00 0.00 0.00 84 1008.2
20260831040159 75 136 2.0 9.0 0.00 0.00 0.00 84 1008.2
20260831035657 75 140 3.0 9.0 0.00 0.00 0.00 83 1008.1
20260831035156 75 161 3.0 8.0 0.00 0.00 0.00 83 1008.0
20260831034656 76 115 3.0 10.0 0.00 0.00 0.00 83 1007.9
20260831034156 76 146 3.0 10.0 0.00 0.00 0.00 83 1007.9
20260831033656 76 112 3.0 8.0 0.00 0.00 0.00 83 1008.0
20260831033422 76 162 3.0 9.0 0.00 0.00 0.00 82 1008.1
20260831032656 76 202 3.0 14.0 0.00 0.00 0.00 82 1008.0
20260831032155 76 134 3.0 14.0 0.00 0.00 0.00 82 1008.1
20260831031656 76 193 3.0 11.0 0.00 0.00 0.00 82 1008.1
20260831031155 76 146 3.0 11.0 0.00 0.00 0.00 81 1007.9
20260831030652 76 146 3.0 9.0 0.00 0.00 0.00 81 1007.8
20260831030150 77 156 4.0 10.0 0.00 0.00 0.00 80 1007.8
20260831025648 77 155 4.0 10.0 0.00 0.00 0.00 80 1007.8
20260831025148 77 158 4.0 9.0 0.00 0.00 0.00 80 1007.9
20260831024650 77 152 3.0 10.0 0.00 0.00 0.00 79 1007.9
20260831024147 77 163 3.0 10.0 0.00 0.00 0.00 79 1007.9
20260831023646 77 153 3.0 12.0 0.00 0.00 0.00 78 1007.9
20260831023416 78 149 3.0 12.0 0.00 0.00 0.00 78 1008.0
20260831022642 78 139 4.0 12.0 0.00 0.00 0.00 77 1007.9
20260831022143 78 160 4.0 12.0 0.00 0.00 0.00 77 1007.9
20260831021643 78 158 4.0 9.0 0.00 0.00 0.00 76 1008.0
20260831021156 78 154 4.0 9.0 0.00 0.00 0.00 76 1008.0
20260831020642 78 155 4.0 11.0 0.00 0.00 0.00 75 1008.0
20260831020142 79 144 4.0 11.0 0.00 0.00 0.00 74 1008.0
20260831015642 79 137 4.0 11.0 0.00 0.00 0.00 74 1008.1
20260831015143 79 132 4.0 11.0 0.00 0.00 0.00 73 1008.2
20260831014643 80 150 5.0 11.0 0.00 0.00 0.00 73 1008.2
20260831014142 80 155 5.0 11.0 0.00 0.00 0.00 72 1008.1
20260831013644 80 136 4.0 11.0 0.00 0.00 0.00 71 1007.9
20260831013143 80 157 4.0 19.0 0.00 0.00 0.00 71 1007.9
20260831012642 81 159 4.0 19.0 0.00 0.00 0.00 70 1007.8
20260831012141 81 136 5.0 18.0 0.00 0.00 0.00 69 1007.7
20260831011641 82 167 5.0 18.0 0.00 0.00 0.00 68 1007.7
20260831011143 82 169 5.0 14.0 0.00 0.00 0.00 67 1007.6
20260831010644 82 148 6.0 14.0 0.00 0.00 0.00 66 1007.5
20260831010142 82 175 5.0 12.0 0.00 0.00 0.00 66 1007.4
20260831005643 83 135 3.0 11.0 0.00 0.00 0.00 66 1007.5
20260831005142 83 172 2.0 9.0 0.00 0.00 0.00 65 1007.3
20260831004640 83 146 3.0 8.0 0.00 0.00 0.00 66 1007.3
20260831004140 83 138 4.0 11.0 0.00 0.00 0.00 65 1007.3
20260831003646 83 156 4.0 11.0 0.00 0.00 0.00 66 1007.3
20260831003131 84 124 3.0 10.0 0.00 0.00 0.00 67 1007.2
20260831002633 84 149 2.0 5.0 0.00 0.00 0.00 67 1007.1
20260831002402 84 151 3.0 7.0 0.00 0.00 0.00 67 1007.0
20260831001631 85 142 4.0 9.0 0.00 0.00 0.00 66 1006.9
20260831001348 85 71 4.0 9.0 0.00 0.00 0.00 66 1006.9
20260831000631 85 182 3.0 7.0 0.00 0.00 0.00 66 1007.0
20260831000130 85 140 4.0 8.0 0.00 0.00 0.00 66 1007.0
20260830235634 86 148 4.0 9.0 0.00 0.00 0.00 66 1006.8
20260830235347 86 121 3.0 9.0 0.00 0.00 0.00 66 1006.8
20260830234630 86 146 3.0 9.0 0.00 0.00 0.00 67 1007.1
20260830234129 86 159 3.0 11.0 0.00 0.00 0.00 67 1007.1
20260830233853 86 145 3.0 13.0 0.00 0.00 0.00 67 1007.0
20260830233125 86 211 3.0 13.0 0.00 0.00 0.00 69 1007.1
20260830232632 86 143 2.0 7.0 0.00 0.00 0.00 70 1006.9
20260830232123 86 140 2.0 7.0 0.00 0.00 0.00 70 1006.9
20260830231842 86 137 3.0 7.0 0.00 0.00 0.00 69 1007.0
20260830231349 86 129 3.0 10.0 0.00 0.00 0.00 69 1007.1
20260830230622 86 88 3.0 10.0 0.00 0.00 0.00 69 1007.2
20260830230125 86 172 3.0 8.0 0.00 0.00 0.00 69 1007.1
20260830225620 86 180 4.0 10.0 0.00 0.00 0.00 69 1007.0
20260830225121 86 69 4.0 10.0 0.00 0.00 0.00 69 1006.9
20260830224619 86 151 4.0 9.0 0.00 0.00 0.00 70 1006.9
20260830224119 85 103 3.0 8.0 0.00 0.00 0.00 70 1006.9
20260830223618 85 148 3.0 7.0 0.00 0.00 0.00 70 1006.9
20260830223115 85 78 3.0 9.0 0.00 0.00 0.00 70 1006.8